• In Russia
  • List of Countries
  • For 7 days
  • Water Temperature
  • Satellite Maps
  • Weather Map
  • Weather Widgets
  • user-avatar
    Login

    Hourly Weather Luksor

    Today, 21 March, Thursday

    Time Temperature Precipitation Wind Pressure Humidity
    00:00 +24°C° 0 mm 3 mps 751 mmHg 24%
    01:00 +22°C° 0 mm 3 mps 751 mmHg 26%
    02:00 +21°C° 0 mm 3 mps 751 mmHg 29%
    03:00 +21°C° 0 mm 2 mps 751 mmHg 31%
    04:00 +20°C° 0 mm 2 mps 751 mmHg 34%
    05:00 +19°C° 0 mm 2 mps 751 mmHg 36%
    06:00 +21°C° 0 mm 2 mps 751 mmHg 34%
    07:00 +23°C° 0 mm 2 mps 752 mmHg 33%
    08:00 +24°C° 0 mm 3 mps 752 mmHg 31%
    09:00 +26°C° 0 mm 3 mps 752 mmHg 26%
    10:00 +28°C° 0 mm 3 mps 752 mmHg 20%
    11:00 +30°C° 0 mm 3 mps 752 mmHg 15%
    12:00 +32°C° 0 mm 4 mps 752 mmHg 13%
    13:00 +33°C° 0 mm 5 mps 751 mmHg 12%
    14:00 +35°C° 0 mm 6 mps 751 mmHg 11%
    15:00 +34°C° 0 mm 6 mps 751 mmHg 11%
    16:00 +34°C° 0 mm 6 mps 750 mmHg 11%
    17:00 +34°C° 0 mm 6 mps 750 mmHg 12%
    18:00 +33°C° 0 mm 6 mps 750 mmHg 13%
    19:00 +30°C° 0 mm 5 mps 751 mmHg 14%
    20:00 +29°C° 0 mm 5 mps 751 mmHg 16%
    21:00 +28°C° 0 mm 5 mps 751 mmHg 16%
    22:00 +27°C° 0 mm 4 mps 752 mmHg 17%
    23:00 +26°C° 0 mm 3 mps 752 mmHg 17%

    Tomorrow, 22 March, Friday

    Time Temperature Precipitation Wind Pressure Humidity
    00:00 +26°C° 0 mm 3 mps 752 mmHg 18%
    01:00 +25°C° 0 mm 2 mps 752 mmHg 18%
    02:00 +24°C° 0 mm 2 mps 752 mmHg 19%
    03:00 +24°C° 0 mm 2 mps 752 mmHg 19%
    04:00 +23°C° 0 mm 2 mps 752 mmHg 19%
    05:00 +23°C° 0 mm 1 mps 752 mmHg 19%
    06:00 +24°C° 0 mm 1 mps 752 mmHg 18%
    07:00 +25°C° 0 mm 1 mps 753 mmHg 18%
    08:00 +26°C° 0 mm 1 mps 753 mmHg 17%
    09:00 +28°C° 0 mm 2 mps 753 mmHg 15%
    10:00 +29°C° 0 mm 3 mps 753 mmHg 13%
    11:00 +31°C° 0 mm 3 mps 752 mmHg 12%
    12:00 +32°C° 0 mm 4 mps 752 mmHg 11%
    13:00 +33°C° 0 mm 4 mps 751 mmHg 11%
    14:00 +34°C° 0 mm 4 mps 751 mmHg 10%
    15:00 +34°C° 0 mm 4 mps 750 mmHg 10%
    16:00 +34°C° 0 mm 4 mps 750 mmHg 10%
    17:00 +34°C° 0 mm 3 mps 750 mmHg 9%
    18:00 +33°C° 0 mm 3 mps 750 mmHg 10%
    19:00 +31°C° 0 mm 3 mps 751 mmHg 11%
    20:00 +30°C° 0 mm 3 mps 751 mmHg 12%
    21:00 +29°C° 0 mm 3 mps 751 mmHg 12%
    22:00 +28°C° 0 mm 2 mps 751 mmHg 13%
    23:00 +27°C° 0 mm 1 mps 752 mmHg 14%

    Day after tomorrow, 23 March, Saturday

    Time Temperature Precipitation Wind Pressure Humidity
    00:00 +26°C° 0 mm 1 mps 751 mmHg 15%
    01:00 +26°C° 0 mm 1 mps 751 mmHg 16%
    02:00 +25°C° 0 mm 1 mps 750 mmHg 17%
    03:00 +24°C° 0 mm 1 mps 750 mmHg 18%
    04:00 +24°C° 0 mm 1 mps 750 mmHg 20%
    05:00 +23°C° 0 mm 1 mps 750 mmHg 21%
    06:00 +24°C° 0 mm 1 mps 750 mmHg 19%
    07:00 +26°C° 0 mm 1 mps 750 mmHg 17%
    08:00 +27°C° 0 mm 1 mps 750 mmHg 16%
    09:00 +29°C° 0 mm 2 mps 750 mmHg 14%
    10:00 +31°C° 0 mm 2 mps 750 mmHg 12%
    11:00 +32°C° 0 mm 2 mps 750 mmHg 11%
    12:00 +33°C° 0 mm 1 mps 749 mmHg 10%
    13:00 +34°C° 0 mm 1 mps 748 mmHg 10%
    14:00 +33°C° 0 mm 0 mps 748 mmHg 10%
    15:00 +33°C° 0 mm 0 mps 747 mmHg 10%
    16:00 +35°C° 0 mm 1 mps 747 mmHg 10%
    17:00 +35°C° 0 mm 1 mps 747 mmHg 10%
    18:00 +35°C° 0 mm 2 mps 747 mmHg 11%
    19:00 +33°C° 0 mm 3 mps 748 mmHg 12%
    20:00 +31°C° 0 mm 3 mps 748 mmHg 13%
    21:00 +30°C° 0 mm 4 mps 748 mmHg 15%
    22:00 +28°C° 0 mm 4 mps 748 mmHg 18%
    23:00 +27°C° 0 mm 4 mps 748 mmHg 21%

    24 March, Sunday

    Time Temperature Precipitation Wind Pressure Humidity
    00:00 +26°C° 0 mm 3 mps 747 mmHg 20%
    01:00 +25°C° 0 mm 3 mps 746 mmHg 19%
    02:00 +25°C° 0 mm 2 mps 746 mmHg 19%
    03:00 +24°C° 0 mm 2 mps 746 mmHg 19%
    04:00 +24°C° 0 mm 2 mps 746 mmHg 19%
    05:00 +23°C° 0 mm 2 mps 746 mmHg 19%
    06:00 +24°C° 0 mm 2 mps 746 mmHg 18%
    07:00 +25°C° 0 mm 2 mps 747 mmHg 17%
    08:00 +26°C° 0 mm 2 mps 747 mmHg 16%
    09:00 +28°C° 0 mm 2 mps 747 mmHg 15%
    10:00 +29°C° 0 mm 2 mps 746 mmHg 14%
    11:00 +31°C° 0 mm 2 mps 746 mmHg 13%
    12:00 +32°C° 0 mm 2 mps 745 mmHg 12%
    13:00 +34°C° 0 mm 2 mps 745 mmHg 12%
    14:00 +35°C° 0 mm 3 mps 744 mmHg 11%
    15:00 +35°C° 0 mm 3 mps 744 mmHg 11%
    16:00 +35°C° 0 mm 4 mps 744 mmHg 11%
    17:00 +35°C° 0 mm 5 mps 744 mmHg 11%
    18:00 +34°C° 0 mm 6 mps 745 mmHg 13%
    19:00 +32°C° 0 mm 7 mps 745 mmHg 16%
    20:00 +31°C° 0 mm 8 mps 746 mmHg 18%
    21:00 +29°C° 0 mm 8 mps 746 mmHg 19%
    22:00 +28°C° 0 mm 7 mps 746 mmHg 19%
    23:00 +27°C° 0 mm 7 mps 747 mmHg 20%

    25 March, Monday

    Time Temperature Precipitation Wind Pressure Humidity
    00:00 +26°C° 0 mm 7 mps 747 mmHg 21%
    01:00 +24°C° 0 mm 7 mps 747 mmHg 22%
    02:00 +23°C° 0 mm 7 mps 747 mmHg 24%
    03:00 +22°C° 0 mm 6 mps 747 mmHg 25%
    04:00 +22°C° 0 mm 5 mps 747 mmHg 27%
    05:00 +21°C° 0 mm 5 mps 748 mmHg 29%
    06:00 +22°C° 0 mm 6 mps 748 mmHg 29%
    07:00 +22°C° 0 mm 7 mps 749 mmHg 28%
    08:00 +22°C° 0 mm 9 mps 750 mmHg 28%
    09:00 +23°C° 0 mm 9 mps 750 mmHg 25%
    10:00 +24°C° 0 mm 9 mps 750 mmHg 22%
    11:00 +27°C° 0 mm 10 mps 750 mmHg 18%
    12:00 +27°C° 0 mm 10 mps 749 mmHg 18%
    13:00 +28°C° 0 mm 9 mps 749 mmHg 18%
    14:00 +28°C° 0 mm 9 mps 749 mmHg 17%
    15:00 +28°C° 0 mm 9 mps 749 mmHg 19%
    16:00 +27°C° 0 mm 9 mps 749 mmHg 20%
    17:00 +27°C° 0 mm 8 mps 749 mmHg 21%
    18:00 +26°C° 0 mm 7 mps 750 mmHg 22%
    19:00 +24°C° 0 mm 6 mps 750 mmHg 24%
    20:00 +23°C° 0 mm 6 mps 751 mmHg 25%
    21:00 +23°C° 0 mm 5 mps 751 mmHg 25%
    22:00 +22°C° 0 mm 4 mps 751 mmHg 26%
    23:00 +21°C° 0 mm 4 mps 751 mmHg 26%

    26 March, Tuesday

    Time Temperature Precipitation Wind Pressure Humidity
    00:00 +21°C° 0 mm 3 mps 751 mmHg 27%
    01:00 +20°C° 0 mm 3 mps 751 mmHg 27%
    02:00 +20°C° 0 mm 3 mps 751 mmHg 28%
    03:00 +19°C° 0 mm 3 mps 751 mmHg 29%
    04:00 +19°C° 0 mm 3 mps 751 mmHg 29%
    05:00 +18°C° 0 mm 3 mps 751 mmHg 30%
    06:00 +19°C° 0 mm 3 mps 752 mmHg 29%
    07:00 +20°C° 0 mm 4 mps 753 mmHg 28%
    08:00 +21°C° 0 mm 4 mps 753 mmHg 27%
    09:00 +23°C° 0 mm 5 mps 753 mmHg 24%
    10:00 +25°C° 0 mm 5 mps 753 mmHg 21%
    11:00 +26°C° 0 mm 6 mps 753 mmHg 17%
    12:00 +27°C° 0 mm 6 mps 753 mmHg 16%
    13:00 +28°C° 0 mm 6 mps 752 mmHg 14%
    14:00 +29°C° 0 mm 6 mps 752 mmHg 13%
    15:00 +28°C° 0 mm 6 mps 752 mmHg 13%
    16:00 +28°C° 0 mm 6 mps 752 mmHg 13%
    17:00 +28°C° 0 mm 6 mps 752 mmHg 13%
    18:00 +27°C° 0 mm 5 mps 752 mmHg 14%
    19:00 +26°C° 0 mm 4 mps 753 mmHg 16%
    20:00 +25°C° 0 mm 4 mps 753 mmHg 17%
    21:00 +24°C° 0 mm 3 mps 753 mmHg 18%
    22:00 +22°C° 0 mm 3 mps 754 mmHg 19%
    23:00 +21°C° 0 mm 3 mps 754 mmHg 20%
    Show more